Data supplied by UK-AIR on 21/1/2015
All Data GMT hour ending 
Status: R =Ratified P=Provisional,P*=As supplied
,,Leominster,,,,,,,,,,,,,,,,,,,,,,,
Date,time,"Nitric oxide",status,unit,"Nitrogen dioxide",status,unit,"Nitrogen oxides as nitrogen dioxide",status,unit,"Ozone",status,unit
 
01-01-2013,01:00,0.28355,R,ugm-3,1.98773,R,ugm-3,2.42250,R,ugm-3,73.24219,R,ugm-3
01-01-2013,02:00,0.76917,R,ugm-3,1.30688,R,ugm-3,2.48625,R,ugm-3,75.10484,R,ugm-3
01-01-2013,03:00,0.42502,R,ugm-3,1.35644,R,ugm-3,2.00813,R,ugm-3,64.66068,R,ugm-3
01-01-2013,04:00,0.36421,R,ugm-3,2.11905,R,ugm-3,2.67750,R,ugm-3,55.87960,R,ugm-3
01-01-2013,05:00,0.36452,R,ugm-3,0.82763,R,ugm-3,1.38656,R,ugm-3,71.79531,R,ugm-3
01-01-2013,06:00,0.33428,R,ugm-3,0.82620,R,ugm-3,1.33875,R,ugm-3,77.08391,R,ugm-3
01-01-2013,07:00,0.30372,R,ugm-3,1.25556,R,ugm-3,1.72125,R,ugm-3,81.27488,R,ugm-3
01-01-2013,08:00,0.36452,R,ugm-3,1.54482,R,ugm-3,2.10375,R,ugm-3,74.68907,R,ugm-3
01-01-2013,09:00,0.21267,R,ugm-3,2.01673,R,ugm-3,2.34281,R,ugm-3,72.09466,R,ugm-3
01-01-2013,10:00,0.36484,R,ugm-3,2.21372,R,ugm-3,2.77313,R,ugm-3,74.19015,R,ugm-3
01-01-2013,11:00,0.42533,R,ugm-3,2.26440,R,ugm-3,2.91656,R,ugm-3,72.54370,R,ugm-3
01-01-2013,12:00,0.42533,R,ugm-3,2.07315,R,ugm-3,2.72531,R,ugm-3,74.73897,R,ugm-3
01-01-2013,13:00,0.57719,R,ugm-3,1.98374,R,ugm-3,2.86875,R,ugm-3,74.09036,R,ugm-3
01-01-2013,14:00,0.39477,R,ugm-3,2.45469,R,ugm-3,3.06000,R,ugm-3,71.54585,R,ugm-3
01-01-2013,15:00,0.30372,R,ugm-3,1.87712,R,ugm-3,2.34281,R,ugm-3,72.19445,R,ugm-3
01-01-2013,16:00,0.51638,R,ugm-3,2.36385,R,ugm-3,3.15563,R,ugm-3,70.49810,R,ugm-3
01-01-2013,17:00,0.39508,R,ugm-3,4.70140,R,ugm-3,5.30719,R,ugm-3,66.30713,R,ugm-3
01-01-2013,18:00,0.45589,R,ugm-3,3.55629,R,ugm-3,4.25531,R,ugm-3,64.06197,R,ugm-3
01-01-2013,19:00,0.54663,R,ugm-3,3.84747,R,ugm-3,4.68563,R,ugm-3,66.70627,R,ugm-3
01-01-2013,20:00,0.39477,R,ugm-3,4.46282,R,ugm-3,5.06813,R,ugm-3,63.71272,R,ugm-3
01-01-2013,21:00,0.27347,R,ugm-3,4.40975,R,ugm-3,4.82906,R,ugm-3,62.41552,R,ugm-3
01-01-2013,22:00,0.45558,R,ugm-3,5.13458,R,ugm-3,5.83313,R,ugm-3,62.31573,R,ugm-3
01-01-2013,23:00,0.57719,R,ugm-3,8.72530,R,ugm-3,9.61031,R,ugm-3,47.59745,R,ugm-3
01-01-2013,24:00,0.30372,R,ugm-3,5.03274,R,ugm-3,5.49844,R,ugm-3,42.45852,R,ugm-3
02-01-2013,01:00,0.60660,R,ugm-3,2.18726,R,ugm-3,3.11738,R,ugm-3,47.69723,R,ugm-3
02-01-2013,02:00,0.36421,R,ugm-3,0.45964,R,ugm-3,1.01809,R,ugm-3,56.81093,R,ugm-3
02-01-2013,03:00,0.15186,R,ugm-3,0.67368,R,ugm-3,0.90653,R,ugm-3,59.37208,R,ugm-3
02-01-2013,04:00,0.33365,R,ugm-3,0.82429,R,ugm-3,1.33588,R,ugm-3,59.47186,R,ugm-3
02-01-2013,05:00,0.36421,R,ugm-3,0.92087,R,ugm-3,1.47932,R,ugm-3,61.56735,R,ugm-3
02-01-2013,06:00,0.27316,R,ugm-3,0.96533,R,ugm-3,1.38417,R,ugm-3,58.72347,R,ugm-3
02-01-2013,07:00,0.33397,R,ugm-3,2.06407,R,ugm-3,2.57614,R,ugm-3,58.27444,R,ugm-3
02-01-2013,08:00,0.24260,R,ugm-3,3.20678,R,ugm-3,3.57877,R,ugm-3,60.56950,R,ugm-3
02-01-2013,09:00,0.36421,R,ugm-3,4.40401,R,ugm-3,4.96246,R,ugm-3,63.11401,R,ugm-3
02-01-2013,10:00,1.69882,R,ugm-3,15.62273,R,ugm-3,18.22756,R,ugm-3,46.59960,R,ugm-3
02-01-2013,11:00,2.24514,R,ugm-3,21.79915,R,ugm-3,25.24165,R,ugm-3,34.52561,R,ugm-3
02-01-2013,12:00,1.30436,R,ugm-3,11.40854,R,ugm-3,13.40854,R,ugm-3,51.98799,R,ugm-3
02-01-2013,13:00,0.60681,R,ugm-3,3.41190,R,ugm-3,4.34233,R,ugm-3,72.14456,R,ugm-3
02-01-2013,14:00,0.45495,R,ugm-3,3.21539,R,ugm-3,3.91298,R,ugm-3,64.91014,R,ugm-3
02-01-2013,15:00,1.09232,R,ugm-3,8.29834,R,ugm-3,9.97321,R,ugm-3,53.18541,R,ugm-3
02-01-2013,16:00,0.54601,R,ugm-3,6.22519,R,ugm-3,7.06238,R,ugm-3,48.44562,R,ugm-3
02-01-2013,17:00,0.30341,R,ugm-3,4.44943,R,ugm-3,4.91465,R,ugm-3,57.17681,R,ugm-3
02-01-2013,18:00,0.33365,R,ugm-3,4.11713,R,ugm-3,4.62873,R,ugm-3,58.22455,R,ugm-3
02-01-2013,19:00,0.30341,R,ugm-3,3.01840,R,ugm-3,3.48362,R,ugm-3,58.62369,R,ugm-3
02-01-2013,20:00,0.39446,R,ugm-3,3.64236,R,ugm-3,4.24718,R,ugm-3,56.42842,R,ugm-3
02-01-2013,21:00,0.24260,R,ugm-3,2.44370,R,ugm-3,2.81568,R,ugm-3,56.62799,R,ugm-3
02-01-2013,22:00,0.57625,R,ugm-3,2.02725,R,ugm-3,2.91083,R,ugm-3,55.43057,R,ugm-3
02-01-2013,23:00,0.51576,R,ugm-3,1.92876,R,ugm-3,2.71958,R,ugm-3,54.08347,R,ugm-3
02-01-2013,24:00,0.36421,R,ugm-3,1.30241,R,ugm-3,1.86086,R,ugm-3,57.87530,R,ugm-3
03-01-2013,01:00,0.16132,R,ugm-3,1.27819,R,ugm-3,1.52554,R,ugm-3,57.54268,R,ugm-3
03-01-2013,02:00,0.68685,R,ugm-3,0.72611,R,ugm-3,1.77926,R,ugm-3,56.54483,R,ugm-3
03-01-2013,03:00,0.48520,R,ugm-3,0.97203,R,ugm-3,1.71599,R,ugm-3,58.37423,R,ugm-3
03-01-2013,04:00,0.36390,R,ugm-3,0.91991,R,ugm-3,1.47788,R,ugm-3,60.96864,R,ugm-3
03-01-2013,05:00,0.45495,R,ugm-3,0.92326,R,ugm-3,1.62084,R,ugm-3,62.11616,R,ugm-3
03-01-2013,06:00,0.45464,R,ugm-3,1.16184,R,ugm-3,1.85895,R,ugm-3,62.36563,R,ugm-3
03-01-2013,07:00,0.51545,R,ugm-3,1.87951,R,ugm-3,2.66985,R,ugm-3,62.66498,R,ugm-3
03-01-2013,08:00,0.45495,R,ugm-3,2.63925,R,ugm-3,3.33683,R,ugm-3,62.81466,R,ugm-3
03-01-2013,09:00,0.72749,R,ugm-3,7.32201,R,ugm-3,8.43747,R,ugm-3,54.43272,R,ugm-3
03-01-2013,10:00,0.66668,R,ugm-3,5.22256,R,ugm-3,6.24479,R,ugm-3,48.79487,R,ugm-3
03-01-2013,11:00,0.84848,R,ugm-3,4.89552,R,ugm-3,6.19650,R,ugm-3,52.93594,R,ugm-3
03-01-2013,12:00,0.84848,R,ugm-3,3.22687,R,ugm-3,4.52784,R,ugm-3,62.41552,R,ugm-3
03-01-2013,13:00,0.60619,R,ugm-3,4.21850,R,ugm-3,5.14797,R,ugm-3,58.62369,R,ugm-3
03-01-2013,14:00,0.36328,R,ugm-3,2.68467,R,ugm-3,3.24169,R,ugm-3,63.56305,R,ugm-3
03-01-2013,15:00,0.42439,R,ugm-3,3.63949,R,ugm-3,4.29022,R,ugm-3,64.66068,R,ugm-3
03-01-2013,16:00,0.45495,R,ugm-3,3.87807,R,ugm-3,4.57566,R,ugm-3,63.81251,R,ugm-3
03-01-2013,17:00,0.42471,R,ugm-3,8.54888,R,ugm-3,9.20008,R,ugm-3,52.33723,R,ugm-3
03-01-2013,18:00,0.48489,R,ugm-3,5.73941,R,ugm-3,6.48290,R,ugm-3,59.07272,R,ugm-3
03-01-2013,19:00,0.51545,R,ugm-3,2.49916,R,ugm-3,3.28950,R,ugm-3,67.95359,R,ugm-3
03-01-2013,20:00,0.33334,R,ugm-3,2.87305,R,ugm-3,3.38417,R,ugm-3,66.10756,R,ugm-3
03-01-2013,21:00,0.36359,R,ugm-3,2.35046,R,ugm-3,2.90796,R,ugm-3,65.40907,R,ugm-3
03-01-2013,22:00,0.27254,R,ugm-3,1.53622,R,ugm-3,1.95410,R,ugm-3,69.00133,R,ugm-3
03-01-2013,23:00,0.33365,R,ugm-3,1.10925,R,ugm-3,1.62084,R,ugm-3,69.55015,R,ugm-3
03-01-2013,24:00,0.30309,R,ugm-3,0.87019,R,ugm-3,1.33493,R,ugm-3,72.39402,R,ugm-3
04-01-2013,01:00,0.36296,R,ugm-3,1.02956,R,ugm-3,1.58610,R,ugm-3,72.90957,R,ugm-3
04-01-2013,02:00,0.64610,R,ugm-3,0.53168,R,ugm-3,1.52235,R,ugm-3,75.90312,R,ugm-3
04-01-2013,03:00,0.48426,R,ugm-3,0.77982,R,ugm-3,1.52235,R,ugm-3,73.69122,R,ugm-3
04-01-2013,04:00,0.24198,R,ugm-3,0.81855,R,ugm-3,1.18958,R,ugm-3,76.08606,R,ugm-3
04-01-2013,05:00,0.33272,R,ugm-3,0.86875,R,ugm-3,1.37891,R,ugm-3,76.93424,R,ugm-3
04-01-2013,06:00,0.39352,R,ugm-3,1.06144,R,ugm-3,1.66483,R,ugm-3,76.33553,R,ugm-3
04-01-2013,07:00,0.33272,R,ugm-3,1.58355,R,ugm-3,2.09371,R,ugm-3,76.08606,R,ugm-3
04-01-2013,08:00,0.30247,R,ugm-3,2.15348,R,ugm-3,2.61726,R,ugm-3,75.68692,R,ugm-3
04-01-2013,09:00,0.42346,R,ugm-3,2.53837,R,ugm-3,3.18766,R,ugm-3,75.23789,R,ugm-3
04-01-2013,10:00,0.33272,R,ugm-3,3.05761,R,ugm-3,3.56777,R,ugm-3,71.64563,R,ugm-3
04-01-2013,11:00,0.48395,R,ugm-3,3.30241,R,ugm-3,4.04446,R,ugm-3,66.80606,R,ugm-3
04-01-2013,12:00,0.66637,R,ugm-3,3.49796,R,ugm-3,4.51972,R,ugm-3,66.95574,R,ugm-3
04-01-2013,13:00,0.57563,R,ugm-3,2.82763,R,ugm-3,3.71025,R,ugm-3,71.29638,R,ugm-3
04-01-2013,14:00,0.57563,R,ugm-3,2.16208,R,ugm-3,3.04470,R,ugm-3,75.63703,R,ugm-3
04-01-2013,15:00,0.51451,R,ugm-3,2.63638,R,ugm-3,3.42529,R,ugm-3,74.83875,R,ugm-3
04-01-2013,16:00,0.45402,R,ugm-3,3.01410,R,ugm-3,3.71025,R,ugm-3,75.23789,R,ugm-3
04-01-2013,17:00,0.30247,R,ugm-3,3.24647,R,ugm-3,3.71025,R,ugm-3,75.98628,R,ugm-3
04-01-2013,18:00,0.42377,R,ugm-3,2.91800,R,ugm-3,3.56777,R,ugm-3,78.13166,R,ugm-3
04-01-2013,19:00,0.33272,R,ugm-3,2.72531,R,ugm-3,3.23547,R,ugm-3,74.43961,R,ugm-3
04-01-2013,20:00,0.45433,R,ugm-3,2.15730,R,ugm-3,2.85393,R,ugm-3,69.69982,R,ugm-3
04-01-2013,21:00,0.33272,R,ugm-3,2.01099,R,ugm-3,2.52115,R,ugm-3,69.84950,R,ugm-3
04-01-2013,22:00,0.33272,R,ugm-3,2.01147,R,ugm-3,2.52163,R,ugm-3,71.39617,R,ugm-3
04-01-2013,23:00,0.33303,R,ugm-3,6.53023,R,ugm-3,7.04087,R,ugm-3,59.32218,R,ugm-3
04-01-2013,24:00,0.51451,R,ugm-3,7.67917,R,ugm-3,8.46807,R,ugm-3,49.44347,R,ugm-3
05-01-2013,01:00,0.36296,R,ugm-3,6.35078,R,ugm-3,6.90731,R,ugm-3,48.49551,R,ugm-3
05-01-2013,02:00,0.88725,R,ugm-3,8.01784,R,ugm-3,9.37826,R,ugm-3,44.63716,R,ugm-3
05-01-2013,03:00,0.60494,R,ugm-3,2.92182,R,ugm-3,3.84938,R,ugm-3,48.69508,R,ugm-3
05-01-2013,04:00,0.33272,R,ugm-3,1.53335,R,ugm-3,2.04351,R,ugm-3,60.86885,R,ugm-3
05-01-2013,05:00,0.42346,R,ugm-3,1.10925,R,ugm-3,1.75854,R,ugm-3,60.76907,R,ugm-3
05-01-2013,06:00,0.45371,R,ugm-3,1.58498,R,ugm-3,2.28066,R,ugm-3,61.91659,R,ugm-3
05-01-2013,07:00,0.39321,R,ugm-3,1.39278,R,ugm-3,1.99569,R,ugm-3,66.95574,R,ugm-3
05-01-2013,08:00,0.42346,R,ugm-3,1.67965,R,ugm-3,2.32895,R,ugm-3,73.14241,R,ugm-3
05-01-2013,09:00,0.45371,R,ugm-3,4.15204,R,ugm-3,4.84771,R,ugm-3,59.92089,R,ugm-3
05-01-2013,10:00,2.26853,R,ugm-3,14.53357,R,ugm-3,18.01193,R,ugm-3,38.41723,R,ugm-3
05-01-2013,11:00,0.69568,R,ugm-3,3.92349,R,ugm-3,4.99019,R,ugm-3,57.87530,R,ugm-3
05-01-2013,12:00,0.60494,R,ugm-3,3.34974,R,ugm-3,4.27731,R,ugm-3,65.15961,R,ugm-3
05-01-2013,13:00,0.75618,R,ugm-3,3.11833,R,ugm-3,4.27778,R,ugm-3,63.01423,R,ugm-3
05-01-2013,14:00,0.51420,R,ugm-3,3.86851,R,ugm-3,4.65694,R,ugm-3,61.26799,R,ugm-3
05-01-2013,15:00,0.51420,R,ugm-3,4.72435,R,ugm-3,5.51278,R,ugm-3,62.96434,R,ugm-3
05-01-2013,16:00,0.57469,R,ugm-3,3.39564,R,ugm-3,4.27683,R,ugm-3,65.70842,R,ugm-3
05-01-2013,17:00,0.45371,R,ugm-3,3.81974,R,ugm-3,4.51541,R,ugm-3,70.14886,R,ugm-3
05-01-2013,18:00,0.27222,R,ugm-3,4.71575,R,ugm-3,5.13315,R,ugm-3,68.55230,R,ugm-3
05-01-2013,19:00,0.48395,R,ugm-3,3.86755,R,ugm-3,4.60960,R,ugm-3,69.00133,R,ugm-3
05-01-2013,20:00,0.30247,R,ugm-3,3.90867,R,ugm-3,4.37245,R,ugm-3,67.60434,R,ugm-3
05-01-2013,21:00,0.51420,R,ugm-3,3.86899,R,ugm-3,4.65742,R,ugm-3,66.75617,R,ugm-3
05-01-2013,22:00,0.48395,R,ugm-3,3.29763,R,ugm-3,4.03968,R,ugm-3,64.81036,R,ugm-3
05-01-2013,23:00,0.63519,R,ugm-3,3.87329,R,ugm-3,4.84723,R,ugm-3,57.72562,R,ugm-3
05-01-2013,24:00,0.48395,R,ugm-3,2.91704,R,ugm-3,3.65909,R,ugm-3,58.17466,R,ugm-3
06-01-2013,01:00,0.36296,R,ugm-3,3.11546,R,ugm-3,3.67200,R,ugm-3,55.94612,R,ugm-3
06-01-2013,02:00,0.44321,R,ugm-3,1.85321,R,ugm-3,2.53279,R,ugm-3,59.53838,R,ugm-3
06-01-2013,03:00,0.27222,R,ugm-3,1.81401,R,ugm-3,2.23141,R,ugm-3,56.67788,R,ugm-3
06-01-2013,04:00,0.42315,R,ugm-3,2.72244,R,ugm-3,3.37126,R,ugm-3,47.44777,R,ugm-3
06-01-2013,05:00,0.36296,R,ugm-3,1.76954,R,ugm-3,2.32608,R,ugm-3,49.24390,R,ugm-3
06-01-2013,06:00,0.45308,R,ugm-3,1.63184,R,ugm-3,2.32656,R,ugm-3,49.54325,R,ugm-3
06-01-2013,07:00,0.54414,R,ugm-3,4.10327,R,ugm-3,4.93760,R,ugm-3,41.06153,R,ugm-3
06-01-2013,08:00,0.57407,R,ugm-3,4.76978,R,ugm-3,5.65000,R,ugm-3,34.97464,R,ugm-3
06-01-2013,09:00,0.75524,R,ugm-3,6.15347,R,ugm-3,7.31149,R,ugm-3,33.22841,R,ugm-3
06-01-2013,10:00,1.02715,R,ugm-3,6.78125,R,ugm-3,8.35619,R,ugm-3,29.58625,R,ugm-3
06-01-2013,11:00,1.57160,R,ugm-3,7.56059,R,ugm-3,9.97034,R,ugm-3,26.84217,R,ugm-3
06-01-2013,12:00,1.14814,R,ugm-3,6.07314,R,ugm-3,7.83360,R,ugm-3,37.66884,R,ugm-3
06-01-2013,13:00,0.51358,R,ugm-3,3.77049,R,ugm-3,4.55797,R,ugm-3,61.41767,R,ugm-3
06-01-2013,14:00,1.14814,R,ugm-3,10.44082,R,ugm-3,12.20127,R,ugm-3,53.68433,R,ugm-3
06-01-2013,15:00,1.32962,R,ugm-3,13.01217,R,ugm-3,15.05090,R,ugm-3,45.05293,R,ugm-3
06-01-2013,16:00,0.66450,R,ugm-3,11.27753,R,ugm-3,12.29642,R,ugm-3,44.45422,R,ugm-3
06-01-2013,17:00,0.57407,R,ugm-3,15.73748,R,ugm-3,16.61771,R,ugm-3,41.26110,R,ugm-3
06-01-2013,18:00,0.57407,R,ugm-3,10.32463,R,ugm-3,11.20486,R,ugm-3,46.49981,R,ugm-3
06-01-2013,19:00,0.42315,R,ugm-3,13.16708,R,ugm-3,13.81590,R,ugm-3,39.71443,R,ugm-3
06-01-2013,20:00,0.39321,R,ugm-3,10.69661,R,ugm-3,11.29953,R,ugm-3,39.06583,R,ugm-3
06-01-2013,21:00,0.54351,R,ugm-3,8.80467,R,ugm-3,9.63804,R,ugm-3,39.76432,R,ugm-3
06-01-2013,22:00,0.36296,R,ugm-3,8.84436,R,ugm-3,9.40089,R,ugm-3,39.06583,R,ugm-3
06-01-2013,23:00,0.39290,R,ugm-3,10.08031,R,ugm-3,10.68275,R,ugm-3,36.37163,R,ugm-3
06-01-2013,24:00,0.42284,R,ugm-3,8.08748,R,ugm-3,8.73582,R,ugm-3,38.31744,R,ugm-3
07-01-2013,01:00,0.56336,R,ugm-3,7.09601,R,ugm-3,7.95983,R,ugm-3,35.78955,R,ugm-3
07-01-2013,02:00,0.84525,R,ugm-3,8.18040,R,ugm-3,9.47644,R,ugm-3,35.78955,R,ugm-3
07-01-2013,03:00,0.45277,R,ugm-3,5.65431,R,ugm-3,6.34854,R,ugm-3,39.46497,R,ugm-3
07-01-2013,04:00,0.39228,R,ugm-3,4.32703,R,ugm-3,4.92851,R,ugm-3,43.70583,R,ugm-3
07-01-2013,05:00,0.24166,R,ugm-3,5.78914,R,ugm-3,6.15968,R,ugm-3,43.60605,R,ugm-3
07-01-2013,06:00,0.60369,R,ugm-3,4.28687,R,ugm-3,5.21252,R,ugm-3,45.35228,R,ugm-3
07-01-2013,07:00,0.60369,R,ugm-3,4.80803,R,ugm-3,5.73368,R,ugm-3,43.20691,R,ugm-3
07-01-2013,08:00,1.38825,R,ugm-3,9.05330,R,ugm-3,11.18191,R,ugm-3,38.01809,R,ugm-3
07-01-2013,09:00,0.96603,R,ugm-3,9.93783,R,ugm-3,11.41906,R,ugm-3,36.87056,R,ugm-3
07-01-2013,10:00,1.14720,R,ugm-3,9.80204,R,ugm-3,11.56106,R,ugm-3,37.26970,R,ugm-3
07-01-2013,11:00,1.63022,R,ugm-3,8.91942,R,ugm-3,11.41906,R,ugm-3,42.35873,R,ugm-3
07-01-2013,12:00,1.66016,R,ugm-3,10.57899,R,ugm-3,13.12453,R,ugm-3,40.66239,R,ugm-3
07-01-2013,13:00,1.23763,R,ugm-3,9.99520,R,ugm-3,11.89288,R,ugm-3,48.09637,R,ugm-3
07-01-2013,14:00,0.96603,R,ugm-3,11.35977,R,ugm-3,12.84100,R,ugm-3,48.49551,R,ugm-3
07-01-2013,15:00,1.32806,R,ugm-3,13.64712,R,ugm-3,15.68346,R,ugm-3,44.90325,R,ugm-3
07-01-2013,16:00,0.99628,R,ugm-3,13.25506,R,ugm-3,14.78267,R,ugm-3,47.04863,R,ugm-3
07-01-2013,17:00,0.69443,R,ugm-3,10.68562,R,ugm-3,11.75040,R,ugm-3,52.13766,R,ugm-3
07-01-2013,18:00,0.57345,R,ugm-3,12.43508,R,ugm-3,13.31435,R,ugm-3,47.59745,R,ugm-3
07-01-2013,19:00,0.63394,R,ugm-3,11.48934,R,ugm-3,12.46137,R,ugm-3,46.10067,R,ugm-3
07-01-2013,20:00,0.72437,R,ugm-3,10.92468,R,ugm-3,12.03536,R,ugm-3,45.60175,R,ugm-3
07-01-2013,21:00,1.14689,R,ugm-3,18.28446,R,ugm-3,20.04300,R,ugm-3,25.59485,R,ugm-3
07-01-2013,22:00,1.75059,R,ugm-3,22.09655,R,ugm-3,24.78074,R,ugm-3,22.80087,R,ugm-3
07-01-2013,23:00,0.66419,R,ugm-3,14.61772,R,ugm-3,15.63612,R,ugm-3,26.69249,R,ugm-3
07-01-2013,24:00,0.54320,R,ugm-3,8.50154,R,ugm-3,9.33443,R,ugm-3,41.85981,R,ugm-3
08-01-2013,01:00,0.76376,R,ugm-3,11.95631,R,ugm-3,13.12740,R,ugm-3,32.19729,R,ugm-3
08-01-2013,02:00,0.88475,R,ugm-3,11.64458,R,ugm-3,13.00118,R,ugm-3,35.45694,R,ugm-3
08-01-2013,03:00,0.57345,R,ugm-3,10.62298,R,ugm-3,11.50225,R,ugm-3,35.57335,R,ugm-3
08-01-2013,04:00,0.42221,R,ugm-3,8.01481,R,ugm-3,8.66219,R,ugm-3,41.26110,R,ugm-3
08-01-2013,05:00,0.60338,R,ugm-3,6.88500,R,ugm-3,7.81017,R,ugm-3,41.46067,R,ugm-3
08-01-2013,06:00,0.63363,R,ugm-3,4.56657,R,ugm-3,5.53812,R,ugm-3,47.89680,R,ugm-3
08-01-2013,07:00,0.45246,R,ugm-3,6.26439,R,ugm-3,6.95815,R,ugm-3,54.28304,R,ugm-3
08-01-2013,08:00,0.42221,R,ugm-3,6.83145,R,ugm-3,7.47883,R,ugm-3,54.98154,R,ugm-3
08-01-2013,09:00,0.63332,R,ugm-3,8.11713,R,ugm-3,9.08820,R,ugm-3,55.13121,R,ugm-3
08-01-2013,10:00,0.99503,R,ugm-3,12.15394,R,ugm-3,13.67963,R,ugm-3,46.79917,R,ugm-3
08-01-2013,11:00,1.02528,R,ugm-3,14.90029,R,ugm-3,16.47236,R,ugm-3,43.55615,R,ugm-3
08-01-2013,12:00,1.71878,R,ugm-3,15.35164,R,ugm-3,17.98706,R,ugm-3,42.75787,R,ugm-3
08-01-2013,13:00,1.68853,R,ugm-3,16.25003,R,ugm-3,18.83908,R,ugm-3,45.65164,R,ugm-3
08-01-2013,14:00,0.99503,R,ugm-3,13.95264,R,ugm-3,15.47834,R,ugm-3,47.14841,R,ugm-3
08-01-2013,15:00,1.86939,R,ugm-3,20.99017,R,ugm-3,23.85653,R,ugm-3,36.22196,R,ugm-3
08-01-2013,16:00,1.26632,R,ugm-3,18.79079,R,ugm-3,20.73246,R,ugm-3,37.96819,R,ugm-3
08-01-2013,17:00,1.56786,R,ugm-3,24.19791,R,ugm-3,26.60192,R,ugm-3,27.14152,R,ugm-3
08-01-2013,18:00,1.14596,R,ugm-3,23.42478,R,ugm-3,25.18189,R,ugm-3,24.34754,R,ugm-3
08-01-2013,19:00,2.47277,R,ugm-3,22.43171,R,ugm-3,26.22324,R,ugm-3,12.72259,R,ugm-3
08-01-2013,20:00,19.41859,R,ugm-3,41.60548,R,ugm-3,71.38024,R,ugm-3,7.18452,R,ugm-3
08-01-2013,21:00,1.56786,R,ugm-3,9.76092,R,ugm-3,12.16493,R,ugm-3,59.57165,R,ugm-3
08-01-2013,22:00,0.54289,R,ugm-3,5.46306,R,ugm-3,6.29547,R,ugm-3,73.49165,R,ugm-3
08-01-2013,23:00,0.57282,R,ugm-3,5.32249,R,ugm-3,6.20080,R,ugm-3,73.19230,R,ugm-3
08-01-2013,24:00,0.30122,R,ugm-3,6.02294,R,ugm-3,6.48481,R,ugm-3,67.15531,R,ugm-3
09-01-2013,01:00,0.56212,R,ugm-3,4.68116,R,ugm-3,5.54306,R,ugm-3,68.11989,R,ugm-3
09-01-2013,02:00,0.76335,R,ugm-3,5.25364,R,ugm-3,6.42409,R,ugm-3,64.59416,R,ugm-3
09-01-2013,03:00,0.93392,R,ugm-3,6.78746,R,ugm-3,8.21945,R,ugm-3,49.39358,R,ugm-3
09-01-2013,04:00,1.05397,R,ugm-3,8.39874,R,ugm-3,10.01481,R,ugm-3,36.57120,R,ugm-3
09-01-2013,05:00,1.95795,R,ugm-3,15.18477,R,ugm-3,18.18692,R,ugm-3,18.70969,R,ugm-3
09-01-2013,06:00,2.77119,R,ugm-3,12.00142,R,ugm-3,16.25051,R,ugm-3,7.13463,R,ugm-3
09-01-2013,07:00,9.94036,R,ugm-3,8.61390,R,ugm-3,23.85557,R,ugm-3,6.63570,R,ugm-3
09-01-2013,08:00,21.59794,R,ugm-3,10.53166,R,ugm-3,43.64803,R,ugm-3,5.43828,R,ugm-3
09-01-2013,09:00,40.15308,R,ugm-3,11.98373,R,ugm-3,73.55093,R,ugm-3,5.33850,R,ugm-3
09-01-2013,10:00,8.61510,R,ugm-3,8.23666,R,ugm-3,21.44630,R,ugm-3,8.03269,R,ugm-3
09-01-2013,11:00,1.83727,R,ugm-3,4.78794,R,ugm-3,7.60506,R,ugm-3,26.34324,R,ugm-3
09-01-2013,12:00,2.07863,R,ugm-3,8.76451,R,ugm-3,11.95169,R,ugm-3,34.47572,R,ugm-3
09-01-2013,13:00,3.49400,R,ugm-3,11.64904,R,ugm-3,17.00643,R,ugm-3,49.69293,R,ugm-3
09-01-2013,14:00,1.89777,R,ugm-3,10.36384,R,ugm-3,13.27371,R,ugm-3,52.78627,R,ugm-3
09-01-2013,15:00,1.65673,R,ugm-3,10.59238,R,ugm-3,13.13266,R,ugm-3,55.33078,R,ugm-3
09-01-2013,16:00,0.93360,R,ugm-3,11.27562,R,ugm-3,12.70713,R,ugm-3,58.47401,R,ugm-3
09-01-2013,17:00,1.59623,R,ugm-3,25.14029,R,ugm-3,27.58781,R,ugm-3,40.66239,R,ugm-3
09-01-2013,18:00,27.56190,R,ugm-3,29.63658,R,ugm-3,71.89757,R,ugm-3,7.78323,R,ugm-3
09-01-2013,19:00,45.15351,R,ugm-3,19.52710,R,ugm-3,88.76152,R,ugm-3,5.78753,R,ugm-3
09-01-2013,20:00,35.27333,R,ugm-3,14.50536,R,ugm-3,68.59038,R,ugm-3,5.98710,R,ugm-3
09-01-2013,21:00,9.21724,R,ugm-3,9.67582,R,ugm-3,23.80871,R,ugm-3,5.53807,R,ugm-3
09-01-2013,22:00,8.85614,R,ugm-3,8.24574,R,ugm-3,21.82497,R,ugm-3,5.23871,R,ugm-3
09-01-2013,23:00,4.27730,R,ugm-3,9.02987,R,ugm-3,15.58831,R,ugm-3,6.63570,R,ugm-3
09-01-2013,24:00,4.00664,R,ugm-3,10.10661,R,ugm-3,16.25003,R,ugm-3,6.93506,R,ugm-3
10-01-2013,01:00,1.56495,R,ugm-3,9.49238,R,ugm-3,11.89193,R,ugm-3,7.71671,R,ugm-3
10-01-2013,02:00,1.40446,R,ugm-3,8.60561,R,ugm-3,10.75909,R,ugm-3,7.38409,R,ugm-3
10-01-2013,03:00,0.84255,R,ugm-3,7.20248,R,ugm-3,8.49437,R,ugm-3,6.63570,R,ugm-3
10-01-2013,04:00,1.11322,R,ugm-3,7.07099,R,ugm-3,8.77790,R,ugm-3,6.18667,R,ugm-3
10-01-2013,05:00,1.23358,R,ugm-3,7.31101,R,ugm-3,9.20247,R,ugm-3,9.28001,R,ugm-3
10-01-2013,06:00,1.92521,R,ugm-3,9.41189,R,ugm-3,12.36383,R,ugm-3,6.98495,R,ugm-3
10-01-2013,07:00,0.78206,R,ugm-3,8.05019,R,ugm-3,9.24933,R,ugm-3,9.23011,R,ugm-3
10-01-2013,08:00,0.90305,R,ugm-3,7.25124,R,ugm-3,8.63589,R,ugm-3,18.51012,R,ugm-3
10-01-2013,09:00,0.84255,R,ugm-3,6.49485,R,ugm-3,7.78674,R,ugm-3,22.35184,R,ugm-3
10-01-2013,10:00,0.60182,R,ugm-3,3.98517,R,ugm-3,4.90795,R,ugm-3,28.08948,R,ugm-3
10-01-2013,11:00,0.69194,R,ugm-3,3.89433,R,ugm-3,4.95529,R,ugm-3,26.59270,R,ugm-3
10-01-2013,12:00,0.63145,R,ugm-3,2.90126,R,ugm-3,3.86947,R,ugm-3,29.08733,R,ugm-3
10-01-2013,13:00,1.20365,R,ugm-3,6.22423,R,ugm-3,8.06979,R,ugm-3,28.43873,R,ugm-3
10-01-2013,14:00,2.61808,R,ugm-3,13.06907,R,ugm-3,17.08341,R,ugm-3,23.05034,R,ugm-3
10-01-2013,15:00,0.66169,R,ugm-3,7.10207,R,ugm-3,8.11665,R,ugm-3,32.28045,R,ugm-3
10-01-2013,16:00,1.74497,R,ugm-3,13.93591,R,ugm-3,16.61150,R,ugm-3,27.64045,R,ugm-3
10-01-2013,17:00,1.41444,R,ugm-3,16.04731,R,ugm-3,18.21608,R,ugm-3,22.00259,R,ugm-3
10-01-2013,18:00,1.44406,R,ugm-3,20.01288,R,ugm-3,22.22708,R,ugm-3,12.82237,R,ugm-3
10-01-2013,19:00,13.75117,R,ugm-3,25.11495,R,ugm-3,46.19978,R,ugm-3,9.52947,R,ugm-3
10-01-2013,20:00,5.92779,R,ugm-3,21.82115,R,ugm-3,30.91030,R,ugm-3,8.53162,R,ugm-3
10-01-2013,21:00,13.14997,R,ugm-3,26.17878,R,ugm-3,46.34179,R,ugm-3,6.08689,R,ugm-3
10-01-2013,22:00,2.97949,R,ugm-3,16.29020,R,ugm-3,20.85868,R,ugm-3,7.23441,R,ugm-3
10-01-2013,23:00,1.05303,R,ugm-3,12.11760,R,ugm-3,13.73223,R,ugm-3,10.17807,R,ugm-3
10-01-2013,24:00,3.97172,R,ugm-3,17.03368,R,ugm-3,23.12356,R,ugm-3,6.33635,R,ugm-3
11-01-2013,01:00,3.88783,R,ugm-3,17.20931,R,ugm-3,23.17058,R,ugm-3,6.12015,R,ugm-3
11-01-2013,02:00,2.68544,R,ugm-3,15.28598,R,ugm-3,19.40359,R,ugm-3,8.98065,R,ugm-3
11-01-2013,03:00,1.17246,R,ugm-3,11.76570,R,ugm-3,13.56345,R,ugm-3,15.66625,R,ugm-3
11-01-2013,04:00,0.57095,R,ugm-3,7.64904,R,ugm-3,8.52449,R,ugm-3,17.96130,R,ugm-3
11-01-2013,05:00,0.18055,R,ugm-3,3.01984,R,ugm-3,3.29667,R,ugm-3,42.80777,R,ugm-3
11-01-2013,06:00,0.39103,R,ugm-3,4.25101,R,ugm-3,4.85058,R,ugm-3,41.95959,R,ugm-3
11-01-2013,07:00,0.60089,R,ugm-3,11.18287,R,ugm-3,12.10421,R,ugm-3,27.88991,R,ugm-3
11-01-2013,08:00,5.07994,R,ugm-3,19.33824,R,ugm-3,27.12738,R,ugm-3,14.36904,R,ugm-3
11-01-2013,09:00,11.27216,R,ugm-3,13.89336,R,ugm-3,31.17710,R,ugm-3,7.58366,R,ugm-3
11-01-2013,10:00,2.43473,R,ugm-3,6.34520,R,ugm-3,10.07840,R,ugm-3,27.24131,R,ugm-3
11-01-2013,11:00,1.53293,R,ugm-3,4.57231,R,ugm-3,6.92277,R,ugm-3,35.57335,R,ugm-3
11-01-2013,12:00,0.99192,R,ugm-3,3.75376,R,ugm-3,5.27468,R,ugm-3,55.53035,R,ugm-3
11-01-2013,13:00,0.87155,R,ugm-3,3.93832,R,ugm-3,5.27468,R,ugm-3,60.81896,R,ugm-3
11-01-2013,14:00,0.48083,R,ugm-3,3.59598,R,ugm-3,4.33325,R,ugm-3,68.45251,R,ugm-3
11-01-2013,15:00,1.44250,R,ugm-3,9.18478,R,ugm-3,11.39659,R,ugm-3,59.72132,R,ugm-3
11-01-2013,16:00,2.58503,R,ugm-3,22.45658,R,ugm-3,26.42023,R,ugm-3,39.51486,R,ugm-3
11-01-2013,17:00,3.93804,R,ugm-3,33.19287,R,ugm-3,39.23111,R,ugm-3,21.95270,R,ugm-3
11-01-2013,18:00,2.25450,R,ugm-3,31.29950,R,ugm-3,34.75634,R,ugm-3,20.95485,R,ugm-3
11-01-2013,19:00,1.80360,R,ugm-3,34.20458,R,ugm-3,36.97006,R,ugm-3,17.76173,R,ugm-3
11-01-2013,20:00,1.50269,R,ugm-3,35.93731,R,ugm-3,38.24139,R,ugm-3,16.01549,R,ugm-3
11-01-2013,21:00,1.35270,R,ugm-3,32.58852,R,ugm-3,34.66263,R,ugm-3,19.65765,R,ugm-3
11-01-2013,22:00,0.75150,R,ugm-3,17.92156,R,ugm-3,19.07384,R,ugm-3,33.97679,R,ugm-3
11-01-2013,23:00,0.63113,R,ugm-3,13.81973,R,ugm-3,14.78745,R,ugm-3,37.91830,R,ugm-3
11-01-2013,24:00,0.72156,R,ugm-3,15.84793,R,ugm-3,16.95431,R,ugm-3,26.59270,R,ugm-3
12-01-2013,01:00,0.52054,R,ugm-3,12.62633,R,ugm-3,13.42448,R,ugm-3,32.33034,R,ugm-3
12-01-2013,02:00,0.76085,R,ugm-3,13.82610,R,ugm-3,14.99273,R,ugm-3,36.05565,R,ugm-3
12-01-2013,03:00,0.75056,R,ugm-3,22.74871,R,ugm-3,23.89956,R,ugm-3,31.08303,R,ugm-3
12-01-2013,04:00,4.38395,R,ugm-3,45.35924,R,ugm-3,52.08120,R,ugm-3,14.66840,R,ugm-3
12-01-2013,05:00,6.33628,R,ugm-3,52.52825,R,ugm-3,62.24375,R,ugm-3,6.03699,R,ugm-3
12-01-2013,06:00,4.08397,R,ugm-3,29.96409,R,ugm-3,36.22610,R,ugm-3,6.68560,R,ugm-3
12-01-2013,07:00,1.17090,R,ugm-3,15.80060,R,ugm-3,17.59596,R,ugm-3,12.17377,R,ugm-3
12-01-2013,08:00,0.75088,R,ugm-3,10.18693,R,ugm-3,11.33826,R,ugm-3,31.83142,R,ugm-3
12-01-2013,09:00,0.81075,R,ugm-3,8.68371,R,ugm-3,9.92683,R,ugm-3,38.16776,R,ugm-3
12-01-2013,10:00,1.29096,R,ugm-3,7.00692,R,ugm-3,8.98636,R,ugm-3,37.41938,R,ugm-3
12-01-2013,11:00,0.99098,R,ugm-3,5.49079,R,ugm-3,7.01027,R,ugm-3,44.75357,R,ugm-3
12-01-2013,12:00,0.87062,R,ugm-3,4.82858,R,ugm-3,6.16351,R,ugm-3,55.82971,R,ugm-3
12-01-2013,13:00,0.63113,R,ugm-3,4.39540,R,ugm-3,5.36313,R,ugm-3,65.85810,R,ugm-3
12-01-2013,14:00,0.69100,R,ugm-3,4.39827,R,ugm-3,5.45780,R,ugm-3,65.90799,R,ugm-3
12-01-2013,15:00,1.11072,R,ugm-3,7.04756,R,ugm-3,8.75064,R,ugm-3,53.68433,R,ugm-3
12-01-2013,16:00,0.84068,R,ugm-3,6.89695,R,ugm-3,8.18598,R,ugm-3,52.33723,R,ugm-3
12-01-2013,17:00,0.60089,R,ugm-3,7.73558,R,ugm-3,8.65693,R,ugm-3,48.14626,R,ugm-3
12-01-2013,18:00,0.75088,R,ugm-3,8.16398,R,ugm-3,9.31531,R,ugm-3,46.49981,R,ugm-3
12-01-2013,19:00,0.75088,R,ugm-3,7.74084,R,ugm-3,8.89217,R,ugm-3,46.35013,R,ugm-3
12-01-2013,20:00,0.63082,R,ugm-3,7.68968,R,ugm-3,8.65693,R,ugm-3,45.30239,R,ugm-3
12-01-2013,21:00,0.87062,R,ugm-3,11.03847,R,ugm-3,12.37340,R,ugm-3,31.08303,R,ugm-3
12-01-2013,22:00,0.75088,R,ugm-3,11.08103,R,ugm-3,12.23235,R,ugm-3,27.74023,R,ugm-3
12-01-2013,23:00,0.60058,R,ugm-3,9.42958,R,ugm-3,10.35045,R,ugm-3,32.18066,R,ugm-3